sat.trackr.live / text

‹ back to catalog

STARLINK-5358

NORAD 57143 · 2023-090AU

PAYLOAD ACTIVE UNKNOWN

§ Identity

Operator
Country
US
Launch date
2023-06-23
Launch site
AFETR
Launch vehicle
Mass (kg)
RCS (m²)

Purposes: comms

External: N2YO · Heavens-Above · Gunter

§ Orbital elements

Epoch: 2026-05-25T04:17:31.908192Z

Period
94.27 min
Inclination
43.0029°
Eccentricity
0.0001908
Mean motion
15.27576183 rev/d
Perigee alt
481.8 km
Apogee alt
484.4 km
Semi-major
6,861.2 km
B*
2.0610e-5
RAAN
191.1826°
Arg perigee
297.4128°
Mean anomaly
62.6529°
Rev number
16,205

§ Raw data

STARLINK-53581 57143U 23090AU  26145.17884153  .00000305  00000+0  20610-4 0  99992 57143  43.0029 191.1826 0001908 297.4128  62.6529 15.27576183162058

JSON: /api/v1/satellites/57143 · /tle

For live sub-satellite position, see the globe view (requires WebGL).

§ Visibility from observer

Set your observer location to see the next 7 days of passes ≥ 10°. The values pass through the URL so the page stays shareable.

No JS? Fill the form by hand. The geolocation button needs JavaScript.